Weather History for Iowa City, IA

Change the Weather History Date:

Thursday, February 7, 2013

  Actual Average Record
Temperature  
Mean Temperature 35 °F 24 °F  
Max Temperature 38 °F 32 °F 60 °F (1987)
Min Temperature 31 °F 16 °F -11 °F (2014)
Degree Days  
Heating Degree Days 30 41  
Month to date heating degree days 295 290  
Since 1 July heating degree days 3905 4157  
Cooling Degree Days 0 0  
Month to date cooling degree days 0 0  
Year to date cooling degree days 0 0  
Moisture  
Dew Point 35 °F    
Average Humidity 91    
Maximum Humidity 100    
Minimum Humidity 82    
Precipitation  
Precipitation 0.53 in 0.04 in 0.53 in (2013)
Month to date precipitation 0.54 0.27  
Year to date precipitation 1.68 1.19  
Sea Level Pressure  
Sea Level Pressure 29.97 in    
Wind  
Wind Speed 7 mph (NE)    
Max Wind Speed 18 mph    
Max Gust Speed 24 mph    
Visibility 5 miles    
Events Rain    
T = Trace of Precipitation, MM = Missing Value Source: NWS Daily Summary

Daily Weather History Graph

Daily Weather History Graph

Search for Another Location

Airport:

Trip Planner

Search our weather history database for the weather conditions in past years. The results will help you decide how hot, cold, wet, or windy it might be!

Date:

Astronomy

Feb. 07, 2013 Rise Set
Actual Time 7:11 AM CST 5:29 PM CST
Civil Twilight 6:42 AM CST 5:58 PM CST
Nautical Twilight 6:09 AM CST 6:31 PM CST
Astronomical Twilight 5:37 AM CST 7:04 PM CST
Moon 4:52 AM CST (2/7) 2:53 PM CST (2/7)
Length of Visible Light 11h 16m
Length of Day
10h 18m
Waning Crescent, 9% of the Moon is Illuminated
Feb 7
Waning Crescent
Feb 10
New
Feb 17
First Quarter
Feb 25
Full
Mar 4
Last Quarter

Hourly Weather History & Observations

Time (CST) Temp. Windchill Dew Point Humidity Pressure Visibility Wind Dir Wind Speed Gust Speed Precip Events Conditions
12:52 AM 36.0 °F 32.1 °F 32.0 °F 86% 30.01 in 10.0 mi SE 4.6 mph - N/A   Mostly Cloudy
1:52 AM 36.0 °F 32.1 °F 33.1 °F 89% 29.99 in 10.0 mi SE 4.6 mph - N/A   Overcast
2:52 AM 36.0 °F 31.1 °F 33.1 °F 89% 29.99 in 10.0 mi SE 5.8 mph - N/A   Overcast
3:52 AM 36.0 °F 33.3 °F 35.1 °F 97% 29.97 in 6.0 mi SE 3.5 mph - 0.01 in Rain Light Rain
4:12 AM 35.6 °F 32.8 °F 35.6 °F 100% 29.95 in 6.0 mi SE 3.5 mph - 0.02 in Rain Light Rain
4:52 AM 36.0 °F 32.1 °F 35.1 °F 97% 29.96 in 5.0 mi SE 4.6 mph - 0.04 in Rain Light Rain
5:52 AM 36.0 °F 32.1 °F 36.0 °F 100% 29.96 in 4.0 mi SE 4.6 mph - 0.08 in Rain Rain
6:52 AM 36.0 °F - 36.0 °F 100% 29.96 in 4.0 mi Calm Calm - 0.05 in Rain Light Rain
7:52 AM 36.0 °F - 35.1 °F 97% 29.96 in 5.0 mi Calm Calm - 0.03 in Rain Light Rain
8:23 AM 35.6 °F 31.7 °F 35.6 °F 100% 29.94 in 4.0 mi ESE 4.6 mph - 0.01 in Rain Light Rain
8:36 AM 35.6 °F - 35.6 °F 100% 29.95 in 3.0 mi Calm Calm - 0.03 in Rain Light Rain
8:52 AM 36.0 °F 33.3 °F 35.1 °F 97% 29.97 in 3.0 mi ESE 3.5 mph - 0.04 in Rain Light Rain
9:26 AM 35.6 °F 32.8 °F 35.6 °F 100% 29.95 in 3.0 mi East 3.5 mph - 0.04 in Rain Light Rain
9:40 AM 35.6 °F 32.8 °F 35.6 °F 100% 29.95 in 3.0 mi East 3.5 mph - 0.05 in Rain Light Rain
9:52 AM 36.0 °F 32.1 °F 35.1 °F 97% 29.96 in 3.0 mi ESE 4.6 mph - 0.06 in Rain Light Rain
10:26 AM 35.6 °F 32.8 °F 35.6 °F 100% 29.95 in 2.5 mi SE 3.5 mph - 0.03 in Rain Light Rain
10:52 AM 37.0 °F - 36.0 °F 96% 29.97 in 2.5 mi Calm Calm - 0.04 in Rain Light Rain
11:04 AM 37.4 °F - 35.6 °F 93% 29.95 in 2.5 mi Calm Calm - 0.01 in Rain Light Rain
11:52 AM 37.9 °F - 37.0 °F 97% 29.95 in 2.0 mi Calm Calm - 0.04 in Rain Light Rain
12:01 PM 37.4 °F - 37.4 °F 100% 29.93 in 2.5 mi Calm Calm - 0.01 in Rain Light Rain
12:11 PM 37.4 °F - 37.4 °F 100% 29.93 in 2.5 mi Calm Calm - 0.01 in Rain Light Rain
12:24 PM 37.4 °F - 37.4 °F 100% 29.92 in 2.0 mi Calm Calm - 0.03 in Rain Light Rain
12:38 PM 37.4 °F - 37.4 °F 100% 29.92 in 3.0 mi Calm Calm - 0.03 in Rain Light Rain
12:47 PM 37.4 °F - 37.4 °F 100% 29.92 in 2.0 mi Calm Calm - 0.04 in Rain Light Rain
12:52 PM 37.0 °F - 37.0 °F 100% 29.94 in 1.8 mi Calm Calm - 0.05 in Rain Light Rain
1:03 PM 37.4 °F - 37.4 °F 100% 29.91 in 2.5 mi Calm Calm - 0.01 in Rain Light Rain
1:13 PM 37.4 °F - 37.4 °F 100% 29.91 in 3.0 mi Calm Calm - 0.01 in Rain Light Rain
1:52 PM 37.9 °F 33.5 °F 37.0 °F 97% 29.92 in 4.0 mi NW 5.8 mph - 0.03 in Rain Light Rain
2:50 PM 37.4 °F 31.4 °F 37.4 °F 100% 29.91 in 7.0 mi NNW 8.1 mph - 0.03 in Rain Light Rain
2:52 PM 37.9 °F 32.1 °F 37.0 °F 97% 29.93 in 6.0 mi NW 8.1 mph - 0.03 in Rain Light Rain
3:52 PM 37.9 °F 33.5 °F 36.0 °F 93% 29.94 in 10.0 mi NNW 5.8 mph - 0.02 in Rain Light Rain
4:52 PM 36.0 °F 27.5 °F 35.1 °F 97% 29.97 in 10.0 mi NNW 12.7 mph - 0.01 in Rain Light Rain
5:52 PM 36.0 °F 27.5 °F 34.0 °F 93% 30.01 in 5.0 mi NNW 12.7 mph - 0.00 in   Overcast
6:52 PM 34.0 °F 23.8 °F 32.0 °F 92% 30.05 in 4.0 mi NW 16.1 mph - N/A   Overcast
7:52 PM 33.1 °F 23.4 °F 30.0 °F 89% 30.07 in 3.0 mi NW 13.8 mph - N/A   Overcast
8:52 PM 32.0 °F 22.1 °F 30.0 °F 92% 30.10 in 4.0 mi NW 13.8 mph 21.9 mph N/A   Overcast
9:52 PM 32.0 °F 22.5 °F 28.9 °F 88% 30.12 in 6.0 mi NNW 12.7 mph 20.7 mph N/A   Overcast
10:52 PM 32.0 °F 24.2 °F 28.9 °F 88% 30.13 in 8.0 mi NNW 9.2 mph - N/A   Overcast
11:52 PM 30.9 °F 20.2 °F 27.0 °F 85% 30.16 in 10.0 mi NNW 15.0 mph 24.2 mph N/A   Overcast